Regional Weather Roundup
Issued by NWS

Home | Current Version | Previous Version | Text Only | Print | Product List | Glossary On
Versions: 1 2 3 4 5 6 7 8 9 10 11 12 13 14 15 16 17 18 19 20 21 22 23 24 25 26 27 28 29 30 31 32 33 34 35 36 37 38 39 40 41 42 43 44 45 46 47 48 49 50
000
ASUS43 KFSD 270002
RWRSD

WEATHER ROUNDUP FOR SOUTH DAKOTA
NATIONAL WEATHER SERVICE SIOUX FALLS SD
600 PM CST MON JAN 26 2015

NOTE: "FAIR" INDICATES FEW OR NO CLOUDS BELOW 12,000 FEET WITH NO
SIGNIFICANT WEATHER AND/OR OBSTRUCTIONS TO VISIBILITY.


SDZ001>005-009-010-012>017-270100-
NORTHWEST AND NORTH CENTRAL SOUTH DAKOTA

CITY           SKY/WX    TMP DP  RH WIND       PRES   REMARKS
BUFFALO          N/A     55  33  43 W8        29.90F
FAITH            N/A     53  30  41 CALM      29.97F
MOBRIDGE       PTCLDY    43  32  65 NE3       29.96S
$$

SDZ012>016-024>037-041>051-057-063-072>074-270100-
SOUTHWEST AND SOUTH CENTRAL SOUTH DAKOTA

CITY           SKY/WX    TMP DP  RH WIND       PRES   REMARKS
RAPID CTY ARPT CLEAR     50  30  46 NE12      30.00F
PIERRE         PTCLDY    42  28  57 NW7       29.98S
CUSTER         CLEAR     52  24  33 W7        30.11S
PHILIP         CLEAR     54  31  41 CALM      29.99S
PINE RIDGE     CLEAR     50  34  54 CALM      30.05S
WINNER         FAIR      53  31  42 NW6       30.00F
$$

SDZ004>011-016>023-039-040-270100-
NORTHEAST SOUTH DAKOTA

CITY           SKY/WX    TMP DP  RH WIND       PRES   REMARKS
ABERDEEN       CLEAR     38  32  79 NW9       29.98S
WATERTOWN      CLEAR     37  31  78 NW10      29.94R
SISSETON         N/A     34  32  92 N9        29.95R WCI  27
$$

SDZ017-020-022-023-036>040-048>070-270100-
SOUTHEAST SOUTH DAKOTA

CITY           SKY/WX    TMP DP  RH WIND       PRES   REMARKS
SIOUX FALLS    MOCLDY    40  34  79 NW13      29.95R
HURON          CLEAR     37  33  85 NW8       29.99R
MITCHELL       CLEAR     41  33  73 NW8       30.00R
YANKTON        CLEAR     45  34  65 W8        30.01R
$$

ABBREVIATIONS USED IN REMARKS
   TC - TEMPERATURE IN CELSIUS
  WCI - WIND CHILL INDEX
   HX - HEAT INDEX
  VSB - VISIBILITY



USA.gov is the U.S. government's official web portal to all federal, state and local government web resources and services.